Welcome to the New NWS' Forecast!
Most changes are behind the scenes, but click here for differences you might notice.

Regional Weather Roundup (RWR)

Issued by Raleigh, NC (RAH)

                            
663 
ASUS42 KRAH 201210
RWRRAH
NORTH CAROLINA WEATHER ROUNDUP
NATIONAL WEATHER SERVICE RALEIGH NC
800 AM EDT MON AUG 20 2018

NOTE: "FAIR" INDICATES FEW OR NO CLOUDS BELOW 12,000 FEET WITH NO
SIGNIFICANT WEATHER AND/OR OBSTRUCTIONS TO VISIBILITY.

NCZ001-053-055-056-065-067-201300-
WESTERN NORTH CAROLINA
  
CITY           SKY/WX    TMP DP  RH WIND       PRES   REMARKS
ASHEVILLE      CLOUDY    70  68  93 N5        30.11R FOG              
JEFFERSON      FOG       63  63 100 CALM      30.14S VSB<1/4          
HICKORY        CLOUDY    72  72 100 CALM      30.05R                  
RUTHERFORDTON  CLOUDY    72  72 100 CALM      30.06R FOG              
MOUNT AIRY     CLOUDY    73  69  90 E6        30.09R                  
BOONE          CLOUDY    64  64 100 CALM      30.16R                  
$$
 
NCZ021-022-025-041-071-084-088-201300-
CENTRAL NORTH CAROLINA
  
CITY           SKY/WX    TMP DP  RH WIND       PRES   REMARKS
CHARLOTTE      PTSUNNY   75  74  96 VRB3      30.04R                  
GREENSBORO     CLOUDY    70  70 100 NE7       30.06R FOG              
WINSTON-SALEM  FOG       72  71  97 NE5       30.08R VSB 1/2          
RALEIGH-DURHAM PTSUNNY   70  69  97 N3        30.03F                  
FORT BRAGG     FAIR      74  71  91 CALM      30.01S                  
FAYETTEVILLE   FAIR      76  74  93 S8        30.02S                  
BURLINGTON     CLOUDY    71  69  93 CALM      30.04F                  
LAURINBURG     CLOUDY    75  74  96 SW3       30.05R                  
$$
 
NCZ011-015-027-028-043-044-047-080-103-201300-
NORTHEASTERN NORTH CAROLINA
  
CITY           SKY/WX    TMP DP  RH WIND       PRES   REMARKS
ROCKY MT-WILSO FAIR      72  70  93 N6        30.02S                  
GREENVILLE     FAIR      73  72  94 CALM      30.05R                  
WASHINGTON     FAIR      71  70  97 SE3       30.04R                  
ELIZABETH CITY PTSUNNY   77  76  96 CALM      30.04R                  
MANTEO         CLOUDY    74  71  90 NW7       30.05R                  
CAPE HATTERAS  LGT RAIN  77  74  90 S6        30.05R FOG              
$$
 
NCZ078-087-090-091-093-098-101-201300-
SOUTHEASTERN NORTH CAROLINA
  
CITY           SKY/WX    TMP DP  RH WIND       PRES   REMARKS
LUMBERTON      FAIR      75  72  90 SW6       30.04R                  
GOLDSBORO        N/A     75  73  95 CALM      30.01R                  
KINSTON        CLOUDY    73  73 100 CALM      30.05R                  
KENANSVILLE    FAIR      75  73  94 CALM      30.03R                  
NEW BERN       FAIR      71  71 100 N3        30.06R                  
CHERRY POINT   FAIR      75  75 100 SW5       30.04S                  
BEAUFORT       FAIR      76  75  97 S3        30.03S                  
JACKSONVILLE   PTSUNNY   77  73  87 S3        30.03R                  
WILMINGTON     FAIR      78  70  76 SW8       30.05R                  
$$